Location: Unspecified
(51.0950°N, 12.9690°E)
Time: 21:04:48
(UTC+00:00)

Cosmos 2333 Rocket - Pass Details

Date: 28 October 2021
Orbit: 837 x 865 km, 70.8° (Epoch: 01 December)

Event Time Altitude Azimuth Distance (km) Brightness Sun altitude
Rises 17:32:50 0° 190° (S) 3,389 5.5 -16.8°
Reaches altitude 10° 17:35:19 10° 185° (S) 2,462 4.7 -17.2°
Maximum altitude 17:40:45 50° 112° (ESE) 1,069 2.3 -18.0°
Enters shadow 17:44:41 19° 44° (NE) 1,936 3.7 -18.6°
